EW7152 Weather Reports


Display with metric or nautical units.
time (UTC)temp
F
wind
direction
speed
MPH
gust
MPH
rain 1hr
in
rain 24hr
in
rain mn
in
humidity
%
barometer
mb
20260506170050 41 53 0.0 0.0 0.00 0.01 0.01 85 1015.5
20260506164532 41 53 0.0 0.0 0.00 0.01 0.01 85 1015.6
20260506163032 42 237 0.0 0.0 0.01 0.01 0.01 85 1015.6
20260506161528 42 237 0.0 0.0 0.01 0.01 0.01 85 1015.8
20260506160024 43 237 0.0 0.0 0.01 0.01 0.01 85 1015.8
20260506154522 43 237 0.0 0.0 0.01 0.01 0.01 85 1016.0
20260506153024 43 237 0.0 0.0 0.00 0.00 0.00 85 1016.0
20260506151520 44 237 0.0 0.0 0.00 0.00 0.00 85 1016.0
20260506150018 44 237 0.0 0.0 0.00 0.00 0.00 85 1016.0
20260506144516 44 237 0.0 0.0 0.00 0.00 0.00 85 1016.1
20260506143023 44 237 0.0 0.0 0.00 0.00 0.00 85 1016.1
20260506141513 44 237 0.0 0.0 0.00 0.00 0.00 85 1016.2
20260506140017 44 237 0.0 0.0 0.00 0.00 0.00 86 1016.3
20260506134510 43 237 0.0 0.0 0.00 0.00 0.00 86 1016.3
20260506133011 43 237 0.0 0.0 0.00 0.00 0.00 87 1016.3
20260506131509 43 237 0.0 0.0 0.00 0.00 0.00 86 1016.3
20260506130007 44 237 0.0 0.0 0.00 0.00 0.00 86 1016.3
20260506124505 45 237 0.0 0.0 0.00 0.00 0.00 86 1016.4
20260506123002 46 237 0.0 0.0 0.00 0.00 0.00 85 1016.5
20260506121559 47 237 0.0 0.0 0.00 0.00 0.00 86 1016.6
20260506120056 47 237 0.0 0.0 0.00 0.00 0.00 86 1016.7
20260506114609 48 237 0.0 0.0 0.00 0.00 0.00 86 1016.8
20260506113055 49 237 0.0 0.0 0.00 0.00 0.00 86 1016.8
20260506111555 49 237 0.0 0.0 0.00 0.00 0.00 86 1016.9
20260506110055 49 237 0.0 0.0 0.00 0.00 0.00 87 1016.8
20260506104618 49 237 0.0 0.0 0.00 0.00 0.00 87 1016.8
20260506103054 50 237 0.0 0.0 0.00 0.00 0.00 89 1016.8
20260506101554 50 237 0.0 0.0 0.00 0.00 0.00 89 1016.8
20260506100053 50 237 0.0 0.0 0.00 0.00 0.00 89 1016.8
20260506094551 51 237 0.0 2.0 0.00 0.00 0.00 89 1016.7
20260506093051 51 237 0.0 3.0 0.00 0.00 0.00 88 1016.6
20260506091550 53 237 0.0 0.0 0.00 0.00 0.00 86 1016.5
20260506090050 54 237 0.0 0.0 0.00 0.00 0.00 85 1016.4
20260506084551 55 237 0.0 1.0 0.00 0.00 0.00 83 1016.4
20260506083050 56 237 0.0 1.0 0.00 0.00 0.00 83 1016.1
20260506081552 57 237 0.0 1.0 0.00 0.00 0.00 82 1016.1
20260506073049 60 237 1.0 2.0 0.00 0.00 0.00 79 1015.6
20260506071547 61 237 1.0 4.0 0.00 0.00 0.00 77 1015.5
20260506061544 64 228 2.0 4.0 0.00 0.00 0.00 73 1015.2
20260506044538 67 297 2.0 7.0 0.00 0.00 0.00 70 1015.3
20260506043034 67 355 4.0 8.0 0.00 0.00 0.00 70 1015.5
20260506041529 66 299 3.0 7.0 0.00 0.00 0.00 72 1015.8
20260506040040 65 328 2.0 6.0 0.00 0.00 0.00 75 1016.1
20260506034522 63 72 2.0 7.0 0.00 0.31 0.00 77 1016.3
20260506033026 63 326 2.0 7.0 0.00 0.31 0.00 76 1016.6
20260506031517 63 345 3.0 7.0 0.00 0.31 0.00 76 1016.7
20260506030018 63 296 3.0 9.0 0.00 0.31 0.00 76 1017.0
20260506024525 62 295 2.0 13.0 0.00 0.35 0.00 78 1017.1
20260506023011 62 12 1.0 8.0 0.00 0.35 0.00 77 1017.2
20260506021509 62 75 2.0 9.0 0.00 0.35 0.00 77 1017.5
20260506020008 62 12 3.0 6.0 0.00 0.35 0.00 78 1017.8
20260506014506 61 29 2.0 9.0 0.00 0.36 0.00 78 1018.1
20260506013058 59 91 3.0 9.0 0.00 0.36 0.00 82 1018.2
20260506011556 59 80 3.0 7.0 0.00 0.36 0.00 81 1018.5
20260506010058 58 69 2.0 8.0 0.00 0.36 0.00 81 1018.7
20260506004554 58 74 3.0 11.0 0.00 0.36 0.00 80 1019.0
20260506003050 57 64 4.0 8.0 0.00 0.36 0.00 83 1018.9
20260506001551 56 68 3.0 8.0 0.00 0.36 0.00 84 1019.0
20260506000044 55 78 5.0 11.0 0.00 0.36 0.00 84 1019.2
20260505234604 54 64 4.0 10.0 0.00 0.36 0.00 86 1019.3
20260505233040 54 64 2.0 7.0 0.00 0.36 0.00 85 1019.4
20260505231539 53 77 5.0 9.0 0.00 0.36 0.00 86 1019.4
20260505230042 52 24 2.0 7.0 0.00 0.36 0.00 88 1019.4
20260505224538 52 106 2.0 5.0 0.00 0.36 0.00 88 1019.5
20260505223037 51 73 3.0 9.0 0.00 0.36 0.00 88 1019.5
20260505221536 50 55 1.0 9.0 0.00 0.36 0.00 88 1019.6
20260505220035 50 53 2.0 7.0 0.00 0.36 0.00 88 1019.6
20260505214544 49 355 1.0 5.0 0.00 0.36 0.00 88 1019.4
20260505213032 49 95 0.0 4.0 0.00 0.36 0.00 89 1019.3
20260505211540 49 96 0.0 4.0 0.00 0.36 0.00 89 1019.1
20260505210030 48 97 0.0 2.0 0.00 0.36 0.00 89 1019.1
20260505204529 48 97 0.0 4.0 0.00 0.36 0.00 89 1019.0
20260505203034 48 91 0.0 3.0 0.00 0.36 0.00 88 1019.0
20260505201625 48 91 0.0 2.0 0.00 0.36 0.00 88 1018.9
20260505200024 48 91 0.0 2.0 0.00 0.36 0.00 88 1018.7
20260505194522 48 91 0.0 4.0 0.00 0.37 0.00 88 1018.6
20260505193019 48 93 1.0 3.0 0.00 0.37 0.00 86 1018.5
20260505191517 48 94 1.0 3.0 0.00 0.37 0.00 85 1018.3
20260505190016 49 98 2.0 4.0 0.00 0.37 0.00 86 1018.1
20260505184524 49 101 2.0 6.0 0.00 0.37 0.00 86 1018.2
20260505183014 49 75 3.0 7.0 0.00 0.37 0.00 86 1018.3
20260505181512 49 70 3.0 8.0 0.00 0.37 0.00 86 1018.2
20260505180011 49 80 1.0 4.0 0.00 0.37 0.00 86 1018.3
20260505174509 50 122 2.0 4.0 0.00 0.37 0.00 85 1018.1
20260505173008 50 115 3.0 8.0 0.00 0.37 0.00 85 1018.0
20260505171507 50 105 2.0 4.0 0.00 0.37 0.00 85 1018.4